| time (UTC) | temp C | wind direction | speed KPH | gust KPH | rain 1hr cm | rain 24hr cm | rain mn cm | humidity % | barometer mb |
| 20260508133028 | 12 | 121 | 1.6 | 3.2 | 0.00 | 0.28 | 0.00 | 1 | 1017.9 |
| 20260508132529 | 12 | 119 | 0.0 | 3.2 | 0.00 | 0.28 | 0.00 | 1 | 1017.9 |
| 20260508132027 | 11 | 96 | 0.0 | 3.2 | 0.00 | 0.28 | 0.00 | 1 | 1018.0 |
| 20260508131523 | 11 | 113 | 0.0 | 4.8 | 0.00 | 0.28 | 0.00 | 1 | 1018.0 |
| 20260508131022 | 11 | 79 | 1.6 | 4.8 | 0.00 | 0.28 | 0.00 | 1 | 1017.9 |
| 20260508130519 | 11 | 98 | 1.6 | 4.8 | 0.00 | 0.28 | 0.00 | 1 | 1018.1 |
| 20260508130025 | 10 | 111 | 0.0 | 4.8 | 0.00 | 0.28 | 0.00 | 1 | 1017.9 |
| 20260508125517 | 11 | 111 | 0.0 | 3.2 | 0.00 | 0.28 | 0.00 | 1 | 1018.0 |
| 20260508125016 | 11 | 93 | 0.0 | 1.6 | 0.00 | 0.28 | 0.00 | 1 | 1017.9 |
| 20260508124529 | 11 | 90 | 0.0 | 1.6 | 0.00 | 0.28 | 0.00 | 1 | 1017.7 |
| 20260508124012 | 11 | 107 | 0.0 | 0.0 | 0.00 | 0.28 | 0.00 | 1 | 1017.8 |
| 20260508123511 | 10 | 107 | 0.0 | 0.0 | 0.00 | 0.28 | 0.00 | 1 | 1017.7 |
| 20260508123019 | 10 | 107 | 0.0 | 0.0 | 0.00 | 0.28 | 0.00 | 1 | 1017.6 |
| 20260508122508 | 10 | 107 | 0.0 | 0.0 | 0.00 | 0.28 | 0.00 | 1 | 1017.6 |
| 20260508122006 | 9 | 107 | 0.0 | 0.0 | 0.00 | 0.28 | 0.00 | 1 | 1017.6 |
| 20260508121505 | 9 | 107 | 0.0 | 0.0 | 0.00 | 0.28 | 0.00 | 1 | 1017.5 |
| 20260508121003 | 8 | 107 | 0.0 | 0.0 | 0.00 | 0.28 | 0.00 | 1 | 1017.4 |
| 20260508120502 | 8 | 107 | 0.0 | 1.6 | 0.00 | 0.28 | 0.00 | 1 | 1017.3 |
| 20260508120002 | 8 | 107 | 0.0 | 1.6 | 0.00 | 0.28 | 0.00 | 1 | 1017.2 |
| 20260508115602 | 8 | 100 | 0.0 | 1.6 | 0.00 | 0.28 | 0.00 | 1 | 1017.1 |
| 20260508115101 | 8 | 101 | 0.0 | 1.6 | 0.00 | 0.28 | 0.00 | 1 | 1017.1 |
| 20260508114557 | 8 | 103 | 0.0 | 1.6 | 0.00 | 0.28 | 0.00 | 1 | 1017.0 |
| 20260508114055 | 8 | 107 | 0.0 | 1.6 | 0.00 | 0.28 | 0.00 | 1 | 1016.9 |
| 20260508113553 | 7 | 91 | 0.0 | 1.6 | 0.00 | 0.28 | 0.00 | 1 | 1016.9 |
| 20260508113051 | 7 | 94 | 0.0 | 1.6 | 0.00 | 0.28 | 0.00 | 1 | 1016.7 |
| 20260508112550 | 7 | 101 | 0.0 | 1.6 | 0.00 | 0.28 | 0.00 | 1 | 1016.7 |
| 20260508112048 | 7 | 100 | 0.0 | 1.6 | 0.00 | 0.28 | 0.00 | 1 | 1016.7 |
| 20260508111551 | 7 | 94 | 0.0 | 1.6 | 0.00 | 0.28 | 0.00 | 1 | 1016.5 |
| 20260508111046 | 7 | 96 | 0.0 | 0.0 | 0.00 | 0.28 | 0.00 | 1 | 1016.5 |
| 20260508110544 | 7 | 96 | 0.0 | 0.0 | 0.00 | 0.28 | 0.00 | 1 | 1016.2 |
| 20260508110044 | 7 | 96 | 0.0 | 0.0 | 0.00 | 0.28 | 0.00 | 1 | 1016.3 |
| 20260508105544 | 7 | 96 | 0.0 | 0.0 | 0.00 | 0.28 | 0.00 | 1 | 1016.2 |
| 20260508105043 | 7 | 96 | 0.0 | 0.0 | 0.00 | 0.28 | 0.00 | 1 | 1016.1 |
| 20260508104544 | 7 | 96 | 0.0 | 0.0 | 0.00 | 0.28 | 0.00 | 1 | 1016.1 |
| 20260508104037 | 7 | 96 | 0.0 | 0.0 | 0.00 | 0.28 | 0.00 | 1 | 1016.0 |
| 20260508103536 | 7 | 96 | 0.0 | 1.6 | 0.00 | 0.28 | 0.00 | 1 | 1015.9 |
| 20260508103041 | 7 | 96 | 0.0 | 1.6 | 0.00 | 0.28 | 0.00 | 1 | 1015.8 |
| 20260508102534 | 7 | 105 | 0.0 | 1.6 | 0.00 | 0.28 | 0.00 | 1 | 1015.8 |
| 20260508102033 | 7 | 106 | 0.0 | 1.6 | 0.00 | 0.28 | 0.00 | 1 | 1015.7 |
| 20260508101538 | 7 | 101 | 0.0 | 1.6 | 0.00 | 0.28 | 0.00 | 1 | 1015.7 |
| 20260508101029 | 7 | 105 | 0.0 | 1.6 | 0.00 | 0.28 | 0.00 | 1 | 1015.6 |
| 20260508100527 | 7 | 110 | 0.0 | 1.6 | 0.00 | 0.28 | 0.00 | 1 | 1015.5 |
| 20260508100026 | 7 | 67 | 0.0 | 3.2 | 0.00 | 0.28 | 0.00 | 1 | 1015.5 |
| 20260508095524 | 7 | 82 | 0.0 | 3.2 | 0.00 | 0.36 | 0.00 | 1 | 1015.4 |
| 20260508095025 | 7 | 99 | 0.0 | 1.6 | 0.00 | 0.36 | 0.00 | 1 | 1015.4 |
| 20260508094539 | 7 | 84 | 0.0 | 3.2 | 0.00 | 0.36 | 0.00 | 1 | 1015.2 |
| 20260508094021 | 8 | 41 | 0.0 | 3.2 | 0.00 | 0.36 | 0.00 | 1 | 1015.2 |
| 20260508093518 | 8 | 101 | 0.0 | 0.0 | 0.00 | 0.36 | 0.00 | 1 | 1015.1 |
| 20260508093024 | 8 | 101 | 0.0 | 0.0 | 0.00 | 0.36 | 0.00 | 1 | 1015.1 |
| 20260508092519 | 8 | 101 | 0.0 | 0.0 | 0.00 | 0.36 | 0.00 | 1 | 1015.1 |
| 20260508092014 | 8 | 101 | 0.0 | 0.0 | 0.00 | 0.36 | 0.00 | 1 | 1015.1 |
| 20260508091531 | 8 | 101 | 0.0 | 0.0 | 0.00 | 0.36 | 0.00 | 1 | 1015.0 |
| 20260508091011 | 8 | 101 | 0.0 | 0.0 | 0.00 | 0.36 | 0.00 | 1 | 1015.0 |
| 20260508090510 | 8 | 101 | 0.0 | 0.0 | 0.00 | 0.36 | 0.00 | 1 | 1014.9 |
| 20260508090009 | 8 | 101 | 0.0 | 0.0 | 0.00 | 0.36 | 0.00 | 1 | 1014.9 |
| 20260508085510 | 8 | 101 | 0.0 | 1.6 | 0.00 | 0.41 | 0.00 | 1 | 1014.8 |
| 20260508085007 | 8 | 101 | 0.0 | 1.6 | 0.00 | 0.41 | 0.00 | 1 | 1014.9 |
| 20260508084504 | 8 | 104 | 0.0 | 1.6 | 0.00 | 0.41 | 0.00 | 1 | 1014.9 |
| 20260508084002 | 8 | 105 | 0.0 | 1.6 | 0.00 | 0.41 | 0.00 | 1 | 1014.8 |
| 20260508083602 | 8 | 89 | 0.0 | 1.6 | 0.00 | 0.41 | 0.00 | 1 | 1014.7 |
| 20260508083059 | 8 | 101 | 0.0 | 1.6 | 0.00 | 0.41 | 0.00 | 1 | 1014.6 |
| 20260508082559 | 8 | 106 | 0.0 | 1.6 | 0.00 | 0.41 | 0.00 | 1 | 1014.5 |
| 20260508082057 | 8 | 98 | 0.0 | 1.6 | 0.00 | 0.41 | 0.00 | 1 | 1014.5 |
| 20260508081608 | 8 | 104 | 0.0 | 1.6 | 0.00 | 0.41 | 0.00 | 1 | 1014.4 |
| 20260508081054 | 8 | 119 | 0.0 | 1.6 | 0.00 | 0.41 | 0.00 | 1 | 1014.2 |
| 20260508080552 | 8 | 100 | 0.0 | 1.6 | 0.00 | 0.41 | 0.00 | 1 | 1014.2 |
| 20260508080052 | 8 | 96 | 0.0 | 1.6 | 0.00 | 0.41 | 0.00 | 1 | 1014.2 |
| 20260508075549 | 8 | 97 | 0.0 | 1.6 | 0.00 | 0.41 | 0.00 | 1 | 1014.2 |
| 20260508075048 | 8 | 73 | 0.0 | 1.6 | 0.00 | 0.41 | 0.00 | 1 | 1014.2 |
| 20260508074548 | 8 | 101 | 0.0 | 0.0 | 0.00 | 0.41 | 0.00 | 1 | 1014.2 |
| 20260508074048 | 8 | 101 | 0.0 | 0.0 | 0.00 | 0.41 | 0.00 | 1 | 1014.1 |
| 20260508073543 | 8 | 101 | 0.0 | 0.0 | 0.00 | 0.41 | 0.00 | 1 | 1014.1 |
| 20260508073048 | 8 | 101 | 0.0 | 0.0 | 0.00 | 0.41 | 0.00 | 1 | 1014.1 |
| 20260508072540 | 8 | 101 | 0.0 | 0.0 | 0.00 | 0.41 | 0.00 | 1 | 1014.1 |
| 20260508072039 | 8 | 101 | 0.0 | 0.0 | 0.00 | 0.41 | 0.00 | 1 | 1014.1 |
| 20260508071551 | 8 | 101 | 0.0 | 0.0 | 0.00 | 0.41 | 0.00 | 1 | 1014.1 |
| 20260508071037 | 8 | 101 | 0.0 | 0.0 | 0.00 | 0.41 | 0.00 | 1 | 1014.1 |
| 20260508070537 | 8 | 101 | 0.0 | 0.0 | 0.00 | 0.41 | 0.00 | 1 | 1014.1 |
| 20260508070050 | 8 | 101 | 0.0 | 0.0 | 0.00 | 0.41 | 0.00 | 1 | 1014.1 |
| 20260508065536 | 8 | 101 | 0.0 | 1.6 | 0.00 | 0.41 | 0.00 | 1 | 1013.9 |
| 20260508065032 | 8 | 101 | 0.0 | 1.6 | 0.00 | 0.41 | 0.00 | 1 | 1014.0 |
| 20260508064536 | 8 | 106 | 0.0 | 1.6 | 0.00 | 0.41 | 0.00 | 1 | 1014.0 |
| 20260508064029 | 8 | 106 | 0.0 | 1.6 | 0.00 | 0.41 | 0.00 | 1 | 1013.9 |
| 20260508063528 | 8 | 115 | 0.0 | 1.6 | 0.00 | 0.41 | 0.00 | 1 | 1014.0 |
| 20260508063028 | 8 | 94 | 0.0 | 1.6 | 0.00 | 0.41 | 0.00 | 1 | 1013.7 |
| 20260508062525 | 8 | 115 | 0.0 | 1.6 | 0.00 | 0.41 | 0.00 | 1 | 1013.8 |
| 20260508062023 | 8 | 115 | 0.0 | 1.6 | 0.00 | 0.41 | 0.00 | 1 | 1013.7 |
| 20260508061523 | 8 | 78 | 0.0 | 1.6 | 0.00 | 0.41 | 0.00 | 1 | 1013.7 |
| 20260508061020 | 8 | 102 | 0.0 | 1.6 | 0.00 | 0.41 | 0.00 | 1 | 1013.6 |
| 20260508060520 | 8 | 101 | 0.0 | 1.6 | 0.00 | 0.41 | 0.00 | 1 | 1013.6 |
| 20260508060023 | 8 | 106 | 0.0 | 1.6 | 0.00 | 0.41 | 0.00 | 1 | 1013.5 |
| 20260508055515 | 8 | 113 | 0.0 | 1.6 | 0.00 | 0.41 | 0.00 | 1 | 1013.6 |
| 20260508055019 | 8 | 109 | 0.0 | 0.0 | 0.00 | 0.41 | 0.00 | 1 | 1013.5 |
| 20260508054517 | 8 | 109 | 0.0 | 0.0 | 0.00 | 0.41 | 0.00 | 1 | 1013.3 |
| 20260508054011 | 8 | 109 | 0.0 | 0.0 | 0.00 | 0.41 | 0.00 | 1 | 1013.3 |
| 20260508053510 | 8 | 109 | 0.0 | 0.0 | 0.00 | 0.41 | 0.00 | 1 | 1013.3 |
| 20260508053008 | 8 | 109 | 0.0 | 0.0 | 0.00 | 0.41 | 0.00 | 1 | 1013.3 |
| 20260508052509 | 8 | 109 | 0.0 | 0.0 | 0.00 | 0.41 | 0.00 | 1 | 1013.3 |
| 20260508052005 | 8 | 109 | 0.0 | 0.0 | 0.00 | 0.41 | 0.00 | 1 | 1013.5 |
| 20260508051504 | 8 | 109 | 0.0 | 0.0 | 0.00 | 0.41 | 0.00 | 1 | 1013.5 |
| 20260508051002 | 8 | 109 | 0.0 | 0.0 | 0.00 | 0.41 | 0.00 | 1 | 1013.4 |
| 20260508050501 | 8 | 109 | 0.0 | 0.0 | 0.00 | 0.41 | 0.00 | 1 | 1013.4 |
| 20260508045559 | 8 | 109 | 0.0 | 0.0 | 0.00 | 0.41 | 0.00 | 1 | 1013.4 |
| 20260508045058 | 8 | 109 | 0.0 | 1.6 | 0.00 | 0.41 | 0.00 | 1 | 1013.3 |
| 20260508044601 | 8 | 109 | 0.0 | 1.6 | 0.00 | 0.41 | 0.00 | 1 | 1013.2 |
| 20260508044055 | 8 | 109 | 0.0 | 1.6 | 0.00 | 0.41 | 0.00 | 1 | 1013.1 |
| 20260508043553 | 8 | 99 | 0.0 | 1.6 | 0.00 | 0.41 | 0.00 | 1 | 1013.1 |
| 20260508043052 | 8 | 97 | 0.0 | 1.6 | 0.00 | 0.41 | 0.00 | 1 | 1013.1 |
| 20260508042551 | 9 | 87 | 0.0 | 1.6 | 0.00 | 0.41 | 0.00 | 1 | 1013.0 |
| 20260508042049 | 9 | 106 | 0.0 | 1.6 | 0.00 | 0.41 | 0.00 | 1 | 1013.1 |
| 20260508041548 | 9 | 101 | 0.0 | 1.6 | 0.00 | 0.41 | 0.00 | 1 | 1013.1 |
| 20260508041048 | 9 | 112 | 0.0 | 1.6 | 0.00 | 0.41 | 0.00 | 1 | 1013.1 |
| 20260508040544 | 9 | 115 | 0.0 | 1.6 | 0.00 | 0.41 | 0.00 | 1 | 1013.0 |
| 20260508040044 | 9 | 181 | 0.0 | 0.0 | 0.00 | 0.41 | 0.00 | 1 | 1012.9 |
| 20260508035542 | 9 | 181 | 0.0 | 0.0 | 0.00 | 0.41 | 0.41 | 1 | 1012.9 |
| 20260508035041 | 9 | 181 | 0.0 | 0.0 | 0.00 | 0.41 | 0.41 | 1 | 1012.8 |
| 20260508034540 | 9 | 181 | 0.0 | 0.0 | 0.00 | 0.41 | 0.41 | 1 | 1012.9 |
| 20260508034037 | 9 | 181 | 0.0 | 0.0 | 0.00 | 0.41 | 0.41 | 1 | 1012.9 |
| 20260508033536 | 9 | 181 | 0.0 | 0.0 | 0.00 | 0.41 | 0.41 | 1 | 1012.8 |
| 20260508033045 | 9 | 181 | 0.0 | 0.0 | 0.00 | 0.41 | 0.41 | 1 | 1012.7 |
| 20260508032533 | 9 | 181 | 0.0 | 0.0 | 0.00 | 0.41 | 0.41 | 1 | 1012.9 |
| 20260508032031 | 9 | 181 | 0.0 | 0.0 | 0.00 | 0.41 | 0.41 | 1 | 1012.9 |
| 20260508031530 | 9 | 181 | 0.0 | 0.0 | 0.00 | 0.41 | 0.41 | 1 | 1012.9 |
| 20260508031029 | 9 | 181 | 0.0 | 0.0 | 0.00 | 0.41 | 0.41 | 1 | 1012.8 |
| 20260508030528 | 9 | 181 | 0.0 | 0.0 | 0.00 | 0.41 | 0.41 | 1 | 1012.8 |
| 20260508030028 | 9 | 181 | 0.0 | 0.0 | 0.00 | 0.41 | 0.41 | 1 | 1012.6 |
| 20260508025528 | 9 | 181 | 0.0 | 0.0 | 0.00 | 0.41 | 0.41 | 1 | 1012.6 |
| 20260508025023 | 9 | 181 | 0.0 | 0.0 | 0.00 | 0.41 | 0.41 | 1 | 1012.6 |
| 20260508024527 | 9 | 181 | 0.0 | 0.0 | 0.00 | 0.41 | 0.41 | 1 | 1012.6 |
| 20260508024021 | 9 | 181 | 0.0 | 0.0 | 0.00 | 0.41 | 0.41 | 1 | 1012.4 |
| 20260508023519 | 9 | 181 | 0.0 | 0.0 | 0.00 | 0.41 | 0.41 | 1 | 1012.4 |
| 20260508023020 | 9 | 181 | 0.0 | 0.0 | 0.00 | 0.41 | 0.41 | 1 | 1012.5 |
| 20260508022516 | 10 | 181 | 0.0 | 0.0 | 0.00 | 0.41 | 0.41 | 1 | 1012.4 |
| 20260508022015 | 10 | 181 | 0.0 | 0.0 | 0.00 | 0.41 | 0.41 | 1 | 1012.5 |
| 20260508021519 | 10 | 181 | 0.0 | 0.0 | 0.00 | 0.41 | 0.41 | 1 | 1012.5 |
| 20260508021011 | 10 | 181 | 0.0 | 0.0 | 0.00 | 0.41 | 0.41 | 1 | 1012.4 |
| 20260508020510 | 10 | 181 | 0.0 | 0.0 | 0.00 | 0.41 | 0.41 | 1 | 1012.4 |
| 20260508020011 | 10 | 181 | 0.0 | 0.0 | 0.00 | 0.41 | 0.41 | 1 | 1012.4 |
| 20260508015507 | 10 | 181 | 0.0 | 0.0 | 0.00 | 0.41 | 0.41 | 1 | 1012.2 |
| 20260508015006 | 10 | 181 | 0.0 | 0.0 | 0.00 | 0.41 | 0.41 | 1 | 1012.2 |
| 20260508014505 | 10 | 181 | 0.0 | 0.0 | 0.00 | 0.41 | 0.41 | 1 | 1012.1 |
| 20260508014004 | 10 | 181 | 0.0 | 0.0 | 0.00 | 0.41 | 0.41 | 1 | 1012.1 |
| 20260508013501 | 10 | 181 | 0.0 | 0.0 | 0.00 | 0.41 | 0.41 | 1 | 1012.4 |
| 20260508013108 | 10 | 181 | 0.0 | 0.0 | 0.00 | 0.41 | 0.41 | 1 | 1012.2 |
| 20260508012558 | 10 | 181 | 0.0 | 0.0 | 0.00 | 0.41 | 0.41 | 1 | 1012.0 |
| 20260508012057 | 10 | 181 | 0.0 | 0.0 | 0.00 | 0.41 | 0.41 | 1 | 1012.2 |
| 20260508011600 | 10 | 181 | 0.0 | 0.0 | 0.00 | 0.41 | 0.41 | 1 | 1012.2 |
| 20260508011057 | 11 | 181 | 0.0 | 0.0 | 0.00 | 0.41 | 0.41 | 1 | 1012.0 |
| 20260508010553 | 11 | 181 | 0.0 | 0.0 | 0.00 | 0.41 | 0.41 | 1 | 1012.1 |
| 20260508010059 | 11 | 181 | 0.0 | 0.0 | 0.00 | 0.41 | 0.41 | 1 | 1011.9 |
| 20260508005550 | 11 | 181 | 0.0 | 0.0 | 0.00 | 0.41 | 0.41 | 1 | 1012.0 |
| 20260508005049 | 11 | 181 | 0.0 | 0.0 | 0.00 | 0.41 | 0.41 | 1 | 1012.0 |
| 20260508004547 | 11 | 181 | 0.0 | 0.0 | 0.00 | 0.41 | 0.41 | 1 | 1011.9 |
| 20260508004045 | 11 | 181 | 0.0 | 0.0 | 0.00 | 0.41 | 0.41 | 1 | 1011.8 |
| 20260508003543 | 11 | 181 | 0.0 | 0.0 | 0.00 | 0.41 | 0.41 | 1 | 1011.7 |
| 20260508003044 | 11 | 181 | 0.0 | 0.0 | 0.00 | 0.41 | 0.41 | 1 | 1011.5 |
| 20260508002541 | 11 | 181 | 0.0 | 0.0 | 0.00 | 0.41 | 0.41 | 1 | 1011.5 |
| 20260508002039 | 11 | 181 | 0.0 | 0.0 | 0.00 | 0.41 | 0.41 | 1 | 1011.7 |
| 20260508001548 | 11 | 181 | 0.0 | 0.0 | 0.00 | 0.41 | 0.41 | 1 | 1011.5 |
| 20260508001036 | 11 | 181 | 0.0 | 0.0 | 0.00 | 0.41 | 0.41 | 1 | 1011.3 |
| 20260508000535 | 11 | 181 | 0.0 | 0.0 | 0.00 | 0.41 | 0.41 | 1 | 1011.2 |
| 20260508000034 | 11 | 181 | 0.0 | 0.0 | 0.00 | 0.41 | 0.41 | 1 | 1011.0 |
| 20260507235533 | 11 | 181 | 0.0 | 0.0 | 0.00 | 0.41 | 0.41 | 1 | 1011.2 |
| 20260507235032 | 11 | 181 | 0.0 | 0.0 | 0.00 | 0.41 | 0.41 | 1 | 1011.0 |
| 20260507234530 | 11 | 181 | 0.0 | 0.0 | 0.00 | 0.41 | 0.41 | 1 | 1010.9 |
| 20260507234028 | 11 | 181 | 0.0 | 0.0 | 0.00 | 0.41 | 0.41 | 1 | 1010.9 |
| 20260507233526 | 11 | 181 | 0.0 | 0.0 | 0.00 | 0.41 | 0.41 | 1 | 1010.8 |
| 20260507233026 | 11 | 181 | 0.0 | 0.0 | 0.00 | 0.41 | 0.41 | 1 | 1010.8 |
| 20260507232524 | 11 | 181 | 0.0 | 0.0 | 0.00 | 0.41 | 0.41 | 1 | 1010.8 |
| 20260507232024 | 11 | 181 | 0.0 | 0.0 | 0.00 | 0.41 | 0.41 | 1 | 1010.8 |
| 20260507231523 | 11 | 181 | 0.0 | 0.0 | 0.00 | 0.41 | 0.41 | 1 | 1010.8 |
| 20260507231019 | 11 | 181 | 0.0 | 0.0 | 0.00 | 0.41 | 0.41 | 1 | 1010.8 |
| 20260507230518 | 11 | 181 | 0.0 | 0.0 | 0.00 | 0.41 | 0.41 | 1 | 1010.7 |
| 20260507230025 | 11 | 181 | 0.0 | 0.0 | 0.00 | 0.41 | 0.41 | 1 | 1010.6 |
| 20260507225515 | 11 | 181 | 0.0 | 0.0 | 0.00 | 0.41 | 0.41 | 1 | 1010.6 |
| 20260507225017 | 11 | 181 | 0.0 | 0.0 | 0.00 | 0.41 | 0.41 | 1 | 1010.6 |
| 20260507224521 | 11 | 181 | 0.0 | 1.6 | 0.00 | 0.41 | 0.41 | 1 | 1010.6 |
| 20260507224010 | 11 | 181 | 0.0 | 3.2 | 0.00 | 0.41 | 0.41 | 1 | 1010.6 |
| 20260507223508 | 12 | 180 | 0.0 | 3.2 | 0.00 | 0.41 | 0.41 | 1 | 1010.7 |
| 20260507223007 | 12 | 185 | 0.0 | 0.0 | 0.00 | 0.41 | 0.41 | 1 | 1010.7 |
| 20260507222505 | 12 | 185 | 0.0 | 0.0 | 0.00 | 0.41 | 0.41 | 1 | 1010.7 |
| 20260507222005 | 12 | 179 | 0.0 | 0.0 | 0.00 | 0.41 | 0.41 | 1 | 1010.6 |
| 20260507221504 | 12 | 179 | 0.0 | 0.0 | 0.00 | 0.41 | 0.41 | 1 | 1010.7 |
| 20260507221002 | 12 | 179 | 0.0 | 0.0 | 0.00 | 0.41 | 0.41 | 1 | 1010.7 |
| 20260507220600 | 12 | 179 | 0.0 | 0.0 | 0.00 | 0.41 | 0.41 | 1 | 1010.5 |
| 20260507220059 | 12 | 179 | 0.0 | 0.0 | 0.00 | 0.41 | 0.41 | 1 | 1010.3 |
| 20260507215558 | 12 | 179 | 0.0 | 0.0 | 0.03 | 0.41 | 0.41 | 1 | 1010.4 |
| 20260507215056 | 12 | 179 | 0.0 | 0.0 | 0.05 | 0.41 | 0.41 | 1 | 1010.5 |
| 20260507214556 | 12 | 179 | 0.0 | 0.0 | 0.13 | 0.41 | 0.41 | 1 | 1010.6 |
| 20260507214053 | 12 | 179 | 0.0 | 0.0 | 0.15 | 0.41 | 0.41 | 1 | 1010.5 |
| 20260507213551 | 12 | 179 | 0.0 | 0.0 | 0.15 | 0.41 | 0.41 | 1 | 1010.4 |
| 20260507213055 | 12 | 179 | 0.0 | 0.0 | 0.18 | 0.41 | 0.41 | 1 | 1010.4 |
| 20260507212548 | 12 | 179 | 0.0 | 0.0 | 0.18 | 0.41 | 0.41 | 1 | 1010.5 |
| 20260507212047 | 12 | 161 | 0.0 | 0.0 | 0.18 | 0.41 | 0.41 | 1 | 1010.4 |
| 20260507211551 | 12 | 161 | 0.0 | 0.0 | 0.18 | 0.41 | 0.41 | 1 | 1010.2 |
| 20260507211044 | 12 | 161 | 0.0 | 0.0 | 0.18 | 0.41 | 0.41 | 1 | 1010.3 |
| 20260507210543 | 12 | 161 | 0.0 | 0.0 | 0.18 | 0.41 | 0.41 | 1 | 1010.5 |
| 20260507210042 | 12 | 158 | 0.0 | 0.0 | 0.18 | 0.41 | 0.41 | 1 | 1010.6 |
| 20260507205540 | 12 | 158 | 0.0 | 0.0 | 0.15 | 0.38 | 0.38 | 1 | 1010.5 |
| 20260507205039 | 12 | 158 | 0.0 | 0.0 | 0.13 | 0.36 | 0.36 | 1 | 1010.7 |
| 20260507204537 | 12 | 158 | 0.0 | 0.0 | 0.08 | 0.28 | 0.28 | 1 | 1010.8 |
| 20260507204036 | 12 | 158 | 0.0 | 0.0 | 0.08 | 0.25 | 0.25 | 1 | 1010.6 |
| 20260507203534 | 12 | 158 | 0.0 | 0.0 | 0.13 | 0.25 | 0.25 | 1 | 1010.9 |
| 20260507203032 | 12 | 158 | 0.0 | 0.0 | 0.10 | 0.23 | 0.23 | 1 | 1010.8 |
| 20260507202530 | 12 | 158 | 0.0 | 0.0 | 0.10 | 0.23 | 0.23 | 1 | 1010.6 |
| 20260507202029 | 13 | 158 | 0.0 | 0.0 | 0.10 | 0.23 | 0.23 | 1 | 1010.9 |
| 20260507201536 | 13 | 158 | 0.0 | 0.0 | 0.10 | 0.23 | 0.23 | 1 | 1010.9 |
| 20260507201027 | 13 | 158 | 0.0 | 0.0 | 0.10 | 0.23 | 0.23 | 1 | 1010.7 |
| 20260507200525 | 13 | 158 | 0.0 | 0.0 | 0.10 | 0.23 | 0.23 | 1 | 1010.8 |
| 20260507200032 | 13 | 158 | 0.0 | 0.0 | 0.10 | 0.23 | 0.23 | 1 | 1010.9 |
| 20260507195525 | 13 | 158 | 0.0 | 0.0 | 0.10 | 0.23 | 0.23 | 1 | 1010.9 |
| 20260507195023 | 13 | 158 | 0.0 | 0.0 | 0.10 | 0.23 | 0.23 | 1 | 1011.0 |
| 20260507194519 | 13 | 158 | 0.0 | 0.0 | 0.08 | 0.20 | 0.20 | 1 | 1010.8 |
| 20260507194017 | 13 | 158 | 0.0 | 0.0 | 0.05 | 0.18 | 0.18 | 1 | 1010.8 |
| 20260507193516 | 13 | 158 | 0.0 | 0.0 | 0.00 | 0.13 | 0.13 | 2 | 1010.9 |
| 20260507193020 | 13 | 158 | 0.0 | 0.0 | 0.00 | 0.13 | 0.13 | 6 | 1011.0 |
| 20260507192514 | 13 | 158 | 0.0 | 0.0 | 0.00 | 0.13 | 0.13 | 9 | 1011.1 |
| 20260507192011 | 13 | 158 | 0.0 | 0.0 | 0.00 | 0.13 | 0.13 | 15 | 1011.0 |
| 20260507191516 | 13 | 158 | 0.0 | 0.0 | 0.00 | 0.13 | 0.13 | 17 | 1011.0 |
| 20260507191009 | 13 | 158 | 0.0 | 0.0 | 0.00 | 0.13 | 0.13 | 21 | 1011.2 |
| 20260507190508 | 13 | 158 | 0.0 | 0.0 | 0.00 | 0.13 | 0.13 | 25 | 1011.0 |
| 20260507190006 | 13 | 158 | 0.0 | 0.0 | 0.00 | 0.13 | 0.13 | 25 | 1011.2 |
| 20260507185504 | 13 | 158 | 0.0 | 1.6 | 0.00 | 0.15 | 0.13 | 25 | 1011.2 |
| 20260507185003 | 13 | 158 | 0.0 | 4.8 | 0.00 | 0.15 | 0.13 | 26 | 1011.0 |
| 20260507184602 | 13 | 158 | 0.0 | 4.8 | 0.00 | 0.15 | 0.13 | 26 | 1011.1 |
| 20260507184101 | 13 | 305 | 0.0 | 4.8 | 0.00 | 0.15 | 0.13 | 25 | 1011.0 |
| 20260507183602 | 13 | 302 | 1.6 | 4.8 | 0.00 | 0.15 | 0.13 | 24 | 1011.0 |
| 20260507183105 | 13 | 326 | 0.0 | 0.0 | 0.00 | 0.15 | 0.13 | 25 | 1010.9 |
| 20260507182556 | 13 | 325 | 0.0 | 3.2 | 0.00 | 0.15 | 0.13 | 27 | 1011.1 |
| 20260507182055 | 13 | 325 | 0.0 | 6.4 | 0.00 | 0.15 | 0.13 | 29 | 1011.3 |
| 20260507181554 | 13 | 325 | 0.0 | 6.4 | 0.00 | 0.15 | 0.13 | 29 | 1011.2 |
| 20260507181051 | 13 | 265 | 0.0 | 6.4 | 0.00 | 0.15 | 0.13 | 28 | 1011.1 |
| 20260507180550 | 13 | 265 | 1.6 | 6.4 | 0.00 | 0.15 | 0.13 | 29 | 1011.2 |
| 20260507180054 | 13 | 253 | 1.6 | 8.0 | 0.00 | 0.15 | 0.13 | 26 | 1011.1 |
| 20260507175547 | 13 | 286 | 1.6 | 11.3 | 0.00 | 0.15 | 0.13 | 21 | 1011.2 |
| 20260507175046 | 12 | 246 | 1.6 | 11.3 | 0.00 | 0.15 | 0.13 | 22 | 1011.1 |
| 20260507174545 | 12 | 311 | 0.0 | 4.8 | 0.00 | 0.15 | 0.13 | 20 | 1011.4 |
| 20260507174043 | 12 | 311 | 0.0 | 4.8 | 0.00 | 0.15 | 0.13 | 19 | 1011.3 |
| 20260507173543 | 12 | 100 | 0.0 | 4.8 | 0.00 | 0.15 | 0.13 | 18 | 1011.5 |
| 20260507173055 | 12 | 281 | 0.0 | 4.8 | 0.00 | 0.15 | 0.13 | 14 | 1011.8 |
| 20260507172539 | 12 | 355 | 1.6 | 6.4 | 0.00 | 0.15 | 0.13 | 8 | 1011.6 |
| 20260507172040 | 12 | 322 | 1.6 | 9.7 | 0.00 | 0.15 | 0.13 | 2 | 1011.5 |
| 20260507171537 | 12 | 141 | 1.6 | 9.7 | 0.00 | 0.15 | 0.13 | 1 | 1011.5 |
| 20260507171034 | 12 | 286 | 0.0 | 6.4 | 0.00 | 0.15 | 0.13 | 1 | 1011.7 |
| 20260507170536 | 12 | 304 | 0.0 | 6.4 | 0.00 | 0.15 | 0.13 | 1 | 1011.6 |
| 20260507170045 | 12 | 196 | 0.0 | 6.4 | 0.00 | 0.15 | 0.13 | 1 | 1011.9 |
| 20260507165530 | 12 | 281 | 0.0 | 4.8 | 0.00 | 0.15 | 0.13 | 1 | 1012.1 |
| 20260507165028 | 12 | 280 | 0.0 | 9.7 | 0.00 | 0.15 | 0.13 | 1 | 1012.1 |
| 20260507164527 | 13 | 315 | 0.0 | 9.7 | 0.00 | 0.15 | 0.13 | 1 | 1012.2 |
| 20260507164027 | 13 | 248 | 0.0 | 8.0 | 0.00 | 0.15 | 0.13 | 1 | 1012.1 |
| 20260507163525 | 12 | 261 | 0.0 | 12.9 | 0.00 | 0.15 | 0.13 | 1 | 1012.3 |
| 20260507163024 | 12 | 246 | 0.0 | 3.2 | 0.00 | 0.15 | 0.13 | 1 | 1012.1 |
| 20260507162521 | 12 | 246 | 0.0 | 3.2 | 0.00 | 0.15 | 0.13 | 1 | 1012.3 |
| 20260507162020 | 12 | 246 | 0.0 | 4.8 | 0.00 | 0.15 | 0.13 | 1 | 1012.0 |
| 20260507161518 | 12 | 140 | 0.0 | 3.2 | 0.00 | 0.15 | 0.13 | 1 | 1012.1 |
| 20260507161016 | 12 | 148 | 0.0 | 4.8 | 0.00 | 0.15 | 0.13 | 1 | 1012.2 |
| 20260507160516 | 12 | 151 | 0.0 | 4.8 | 0.00 | 0.15 | 0.13 | 1 | 1012.2 |
| 20260507160014 | 12 | 325 | 0.0 | 8.0 | 0.00 | 0.15 | 0.13 | 1 | 1012.2 |
| 20260507155513 | 12 | 326 | 0.0 | 8.0 | 0.00 | 0.15 | 0.13 | 1 | 1012.2 |
| 20260507155010 | 12 | 200 | 0.0 | 6.4 | 0.00 | 0.15 | 0.13 | 1 | 1012.2 |
| 20260507154510 | 13 | 332 | 0.0 | 4.8 | 0.00 | 0.15 | 0.13 | 1 | 1012.2 |
| 20260507154009 | 13 | 60 | 0.0 | 0.0 | 0.00 | 0.15 | 0.13 | 1 | 1012.2 |
| 20260507153506 | 13 | 60 | 0.0 | 0.0 | 0.00 | 0.15 | 0.13 | 1 | 1012.4 |
| 20260507153004 | 13 | 60 | 0.0 | 6.4 | 0.00 | 0.15 | 0.13 | 1 | 1012.3 |
| 20260507152504 | 13 | 61 | 1.6 | 6.4 | 0.00 | 0.15 | 0.13 | 1 | 1012.2 |
| 20260507152103 | 13 | 258 | 0.0 | 6.4 | 0.00 | 0.15 | 0.13 | 1 | 1012.2 |
| 20260507151601 | 13 | 280 | 1.6 | 4.8 | 0.00 | 0.15 | 0.13 | 1 | 1012.1 |
| 20260507151059 | 13 | 298 | 0.0 | 0.0 | 0.00 | 0.15 | 0.13 | 1 | 1012.2 |
| 20260507150557 | 13 | 298 | 0.0 | 0.0 | 0.00 | 0.15 | 0.13 | 1 | 1012.2 |
| 20260507150108 | 13 | 299 | 0.0 | 0.0 | 0.00 | 0.15 | 0.13 | 1 | 1012.3 |
| 20260507145556 | 13 | 299 | 0.0 | 0.0 | 0.00 | 0.30 | 0.13 | 1 | 1012.5 |
| 20260507145052 | 13 | 300 | 0.0 | 0.0 | 0.00 | 0.30 | 0.13 | 1 | 1012.3 |
| 20260507144551 | 13 | 300 | 0.0 | 0.0 | 0.00 | 0.30 | 0.13 | 1 | 1012.1 |
| 20260507144050 | 13 | 304 | 0.0 | 4.8 | 0.00 | 0.30 | 0.13 | 1 | 1011.8 |
| 20260507143548 | 13 | 304 | 0.0 | 4.8 | 0.00 | 0.30 | 0.13 | 1 | 1011.8 |
| 20260507143059 | 13 | 286 | 0.0 | 3.2 | 0.00 | 0.30 | 0.13 | 1 | 1012.1 |
| 20260507142545 | 13 | 286 | 0.0 | 3.2 | 0.00 | 0.30 | 0.13 | 1 | 1012.1 |
| 20260507142043 | 13 | 283 | 0.0 | 3.2 | 0.00 | 0.30 | 0.13 | 1 | 1012.1 |
| 20260507141542 | 13 | 282 | 0.0 | 6.4 | 0.00 | 0.30 | 0.13 | 1 | 1012.2 |
| 20260507141042 | 13 | 281 | 0.0 | 6.4 | 0.00 | 0.30 | 0.13 | 1 | 1012.3 |
| 20260507140540 | 13 | 270 | 0.0 | 8.0 | 0.00 | 0.30 | 0.13 | 1 | 1012.3 |
| 20260507140039 | 13 | 208 | 0.0 | 3.2 | 0.00 | 0.30 | 0.13 | 1 | 1012.4 |
| 20260507135539 | 13 | 208 | 0.0 | 3.2 | 0.00 | 0.30 | 0.13 | 1 | 1012.4 |
| 20260507135035 | 13 | 206 | 0.0 | 0.0 | 0.00 | 0.30 | 0.13 | 1 | 1012.3 |
| 20260507134534 | 13 | 206 | 0.0 | 3.2 | 0.00 | 0.30 | 0.13 | 1 | 1012.4 |
| 20260507134032 | 13 | 206 | 0.0 | 3.2 | 0.00 | 0.30 | 0.13 | 1 | 1012.4 |
| 20260507133533 | 13 | 206 | 0.0 | 4.8 | 0.00 | 0.30 | 0.13 | 1 | 1012.2 |